Weather History for Montague, CA

Change the Weather History Date:

Sunday, November 18, 2012

  Actual Average Record
Temperature  
Mean Temperature 38 °F 39 °F  
Max Temperature 47 °F 49 °F 65 °F (2008)
Min Temperature 28 °F 29 °F 15 °F (2000)
Degree Days  
Heating Degree Days 27 26  
Month to date heating degree days 380 417  
Since 1 July heating degree days 735 970  
Cooling Degree Days 0 0  
Month to date cooling degree days 0 0  
Year to date cooling degree days 622 544  
Moisture  
Dew Point 31 °F    
Average Humidity 84    
Maximum Humidity 100    
Minimum Humidity 58    
Precipitation  
Precipitation 0.00 in 0.11 in 1.30 in (1996)
Month to date precipitation 0.22 1.63  
Year to date precipitation 8.71 14.47  
Sea Level Pressure  
Sea Level Pressure 30.03 in    
Wind  
Wind Speed 11 mph (East)    
Max Wind Speed 31 mph    
Max Gust Speed 39 mph    
Visibility 7 miles    
Events Fog    
T = Trace of Precipitation, MM = Missing Value Source: NWS Daily Summary

Daily Weather History Graph

Daily Weather History Graph

Search for Another Location

Airport:

Trip Planner

Search our weather history database for the weather conditions in past years. The results will help you decide how hot, cold, wet, or windy it might be!

Date:

Astronomy

Nov. 18, 2012 Rise Set
Actual Time 7:03 AM PST 4:46 PM PST
Civil Twilight 6:33 AM PST 5:16 PM PST
Nautical Twilight 5:59 AM PST 5:50 PM PST
Astronomical Twilight 5:26 AM PST 6:23 PM PST
Moon 11:33 AM PST (11/18) 10:13 PM PST (11/18)
Length of Visible Light 10h 43m
Length of Day
9h 42m
Waxing Crescent, 31% of the Moon is Illuminated
Nov 18
Waxing Crescent
Nov 20
First Quarter
Nov 28
Full
Dec 6
Last Quarter
Dec 13
New

Hourly Weather History & Observations

Time (PST) Temp. Windchill Dew Point Humidity Pressure Visibility Wind Dir Wind Speed Gust Speed Precip Events Conditions
12:53 AM 30.0 °F 24.1 °F 27.0 °F 88% 30.01 in 10.0 mi SE 5.8 mph - N/A   Clear
1:53 AM 28.9 °F 21.9 °F 27.0 °F 92% 30.02 in 10.0 mi North 6.9 mph - N/A   Clear
2:53 AM 28.9 °F 25.2 °F 27.0 °F 92% 30.03 in 10.0 mi NE 3.5 mph - N/A   Clear
3:53 AM 28.9 °F - 27.0 °F 92% 30.06 in 10.0 mi Calm Calm - N/A   Clear
4:53 AM 28.9 °F - 26.1 °F 89% 30.07 in 10.0 mi Calm Calm - N/A   Clear
5:53 AM 30.0 °F - 28.0 °F 92% 30.07 in 10.0 mi Calm Calm - N/A   Mostly Cloudy
6:53 AM 30.0 °F - 28.9 °F 96% 30.07 in 10.0 mi Calm Calm - N/A   Overcast
7:03 AM 30.2 °F 26.7 °F 28.4 °F 93% 29.99 in 10.0 mi North 3.5 mph - N/A   Overcast
7:23 AM 30.2 °F 26.7 °F 28.4 °F 93% 29.99 in 10.0 mi NNE 3.5 mph - N/A   Overcast
7:32 AM 30.2 °F 25.4 °F 28.4 °F 93% 30.00 in 10.0 mi NE 4.6 mph - N/A   Overcast
7:40 AM 30.2 °F - 28.4 °F 93% 30.00 in 1.8 mi Calm Calm - N/A   Overcast
7:49 AM 30.2 °F - 28.4 °F 93% 30.00 in 1.2 mi Calm Calm - N/A   Overcast
7:53 AM 30.0 °F - 30.0 °F 100% 30.07 in 1.8 mi Calm Calm - N/A   Mostly Cloudy
7:56 AM 30.2 °F - 28.4 °F 93% 30.00 in 3.0 mi Calm Calm - N/A   Mostly Cloudy
8:17 AM 30.2 °F 24.3 °F 30.2 °F 100% 30.00 in 2.5 mi North 5.8 mph - N/A   Scattered Clouds
8:19 AM 30.2 °F 23.4 °F 28.4 °F 93% 30.00 in 1.0 mi North 6.9 mph - N/A   Mist
8:24 AM 30.2 °F 25.4 °F 28.4 °F 93% 30.00 in 0.2 mi North 4.6 mph - N/A Fog Light Freezing Fog
8:53 AM 32.0 °F - 32.0 °F 100% 30.08 in 0.2 mi Calm Calm - N/A Fog Fog
9:01 AM 33.8 °F - 33.8 °F 100% 30.00 in 0.8 mi Calm Calm - N/A   Mist
9:13 AM 33.8 °F - 32.0 °F 93% 30.00 in 1.2 mi Calm Calm - N/A   Overcast
9:29 AM 33.8 °F 30.8 °F 33.8 °F 100% 30.00 in 3.0 mi NNE 3.5 mph - N/A   Overcast
9:53 AM 36.0 °F 33.3 °F 34.0 °F 93% 30.08 in 10.0 mi NE 3.5 mph - N/A   Mostly Cloudy
10:03 AM 35.6 °F 32.8 °F 33.8 °F 93% 30.01 in 10.0 mi NNE 3.5 mph - N/A   Scattered Clouds
10:53 AM 36.0 °F 33.3 °F 34.0 °F 93% 30.09 in 10.0 mi North 3.5 mph - N/A   Partly Cloudy
11:53 AM 39.0 °F 35.7 °F 35.1 °F 86% 30.07 in 10.0 mi NE 4.6 mph - N/A   Overcast
12:53 PM 39.9 °F - 34.0 °F 79% 30.06 in 10.0 mi Calm Calm - N/A   Mostly Cloudy
1:53 PM 43.0 °F 38.2 °F 36.0 °F 76% 30.04 in 10.0 mi South 8.1 mph - N/A   Scattered Clouds
2:53 PM 46.9 °F - 32.0 °F 56% 30.02 in 10.0 mi South 20.7 mph 26.5 mph N/A   Clear
3:53 PM 45.0 °F 36.9 °F 32.0 °F 60% 30.02 in 10.0 mi South 20.7 mph 26.5 mph N/A   Clear
4:53 PM 44.1 °F 34.6 °F 30.0 °F 58% 30.03 in 10.0 mi South 26.5 mph 32.2 mph N/A   Overcast
5:53 PM 44.1 °F 35.4 °F 30.9 °F 60% 30.03 in 10.0 mi South 21.9 mph 27.6 mph N/A   Overcast
6:53 PM 44.1 °F 35.9 °F 30.9 °F 60% 30.05 in 10.0 mi South 19.6 mph 29.9 mph N/A   Overcast
7:53 PM 45.0 °F 36.6 °F 30.9 °F 58% 30.04 in 10.0 mi South 21.9 mph 29.9 mph N/A   Overcast
9:53 PM 45.0 °F 36.6 °F 32.0 °F 60% 30.06 in 10.0 mi South 21.9 mph 29.9 mph N/A   Overcast
10:53 PM 45.0 °F 36.4 °F 32.0 °F 60% 30.05 in 10.0 mi South 23.0 mph 31.1 mph N/A   Mostly Cloudy
11:53 PM 45.0 °F 36.2 °F 32.0 °F 60% 30.05 in 10.0 mi South 24.2 mph 34.5 mph N/A   Clear